Total Garden: 748 Total Member: 190899

Details SL PF No Garden Code Name NOE Date of Joining Date of Birth Father's Name Mother's Name Spouse's Name Mobile PAN Aadhar Nominee Relation Entry Date Remarks
1 12727 S-171 SANDHIYAA GHATWAR PERMANENT 9-3-2009 6-11-1982 LT. NAKUL GHATWAR LT. BOBITA GHATWAR JETU GHATWAR BHUSON GHATWAR Son 30-SEP-22
2 12922 S-171 RUPALI LOHAR PERMANENT 5-4-2010 5-4-2010 LT. DURGO LOHAR LT. JENA LOHAR RAM LOHAR BISAM LOHAR Son 30-SEP-22
3 5944 E-067 JANAKI PRAJA PERMANENT 10-7-2021 1-1-1992 LT BUDHAN PRAJA LT SUKRI MUSRI PRAJA NIPEN PRAJA 7637870859 366620647304 NIKITA PRAJA DAUGHTER 30-SEP-22
4 9804 S-171 HACHU KARMOKER PERMANENT 12-5-1997 1-1-1980 LT. JOHORLEL KARMOKAR ROHINO KARMOKAR RAJEAN KAMP RAJEN KAMP HUSBAND 30-SEP-22
5 1720 E-067 CHAMA BINDRA TANTI PERMANENT 9-9-1985 1-6-1969 LT BINRDO TANTI LT EATOWARI TANTI AGHNI TANTI 595494117175 SAMIT TANTI Son 30-SEP-22
6 1903 E-067 BABNI SUKLAL PERMANENT 14-3-1990 1-7-1968 RAMDASH GOWALLA GANDAMONI GOWALLA SUKLAL GUWALA 8752071449 CJDPP9246D 543178728987 KARANG PRAJA Son 30-SEP-22
7 4536 E-067 FULMAY TANTI PERMANENT 20-5-2014 3-1-1992 SOMRA TANTI SUMITRA PORJA AJOY TANTI 6002555616 CFRPT1884F 264213841787 AJOY TANTI HUSBAND 30-SEP-22
8 4558 E-067 SHANTI PORJA PERMANENT 27-1-2015 1-1-1988 LT. LAKHI KANTA PORJA KARMOTI PORJA MONESWAR PORJA GTPPP3669J 631940071731 MONESWAR PORJA HUSBAND 30-SEP-22
9 14834 S-171 GITTA KAMP PERMANENT 20-8-2013 30-9-2022 LT. TALIA GOWALA PALMA GOWALA LT. ROMESH KAMP RANGEL KAMP Son 30-SEP-22
10 579 D-055 JHARIO KUJUR TEMPORARY 1-6-2021 4-5-1996 RINKU KUJUR IAAPK6325J 394448394661 RINKU KUJUR HUSBAND 30-SEP-22
11 577 D-055 RAHUL GORH TEMPORARY 1-6-2021 12-1-1990 BINDU GORH SUKURMUNI GORH 7636069886 CMJPG3533R 444010215844 SUKURMUNI GORH WIFE 30-SEP-22
12 575 D-055 NIRANJAN DAS TEMPORARY 1-6-2021 3-9-1965 MANRANJAN DAS NIYASI DAS EUYPD7809C 341388674572 NIYASI DAS WIFE 30-SEP-22
13 574 D-055 SUSHILA MUNDA TEMPORARY 1-6-2021 1-5-1997 PAITE RAUTIA PATLA MUNDA CARPR5257D 273045358309 PATLA MUNDA HUSBAND 30-SEP-22
14 573 D-055 RIMA GORH TEMPORARY 1-6-2021 4-7-1997 BIPAN DUNGRI SUKHDEW GORH 6901061636 DDHP1559R 782704105051 SUKUHDEW GORH HUSBAND 30-SEP-22
15 569 D-055 USHA BORO PERMANENT 1-6-2021 1-10-1985 UPENDRA BARMAN DILIP BORO 6901689250 EBAPB3065H 257448294418 DILIP BORO HUSBAND 30-SEP-22
16 558 D-055 SIMANGSHA DAIMARY PERMANENT 1-4-2021 12-1-1993 PADMADHAR DAIMARY PALLABI BRAHMA 7099224946 BCYPD2255H 359379739444 PALLABI BRAHMA WIFE 30-SEP-22
17 557 D-055 UMAWATI MURARI PERMANENT 1-4-2021 26-9-1988 GANA RAM MURARI MAHESWER GOWALA CNFPM6437F 519182412066 MAHESWER GOWALA HUSBAND 30-SEP-22
18 556 D-055 PUSHPA MUNDA PERMANENT 1-4-2021 9-4-1987 BHADA GUWALA LEPA MUNDA 8134093472 FERPM8707J 381103014352 LEEPA MUNDA HUSBAND 30-SEP-22
19 553 D-055 RINKU KUJUR PERMANENT 1-4-2021 8-8-1995 ATUWA KUJUR KHARIO KUJUR IAAPK5779J 378728009103 JHARIO KUJUR WIFE 30-SEP-22
20 552 D-055 RITU MUNDA PERMANENT 1-4-2021 11-9-1988 BUDHU MUNDA 8812841478 DGDPM8818Q 780158243619 BUDHU MUNDA HUSBAND 30-SEP-22
21 551 D-055 PRANITA KUJUR PERMANENT 1-4-2021 12-6-1990 ANANDO BORO KARTIK BORO 7896792693 HMTPK1751C 526183953446 KARTIK KUJUR HUSBAND 30-SEP-22
22 549 D-055 DIPALI DEBNATH TEMPORARY 1-6-2020 1-10-1980 LT PRAMESH DEBNATH SANTI DEVI LT BARUN DEBNATH 7099391281 ECWPD9493Q 917381879227 NABAJIT DEBNATH Son 30-SEP-22
23 548 D-055 PANKAJ BHUMIJ TEMPORARY 1-6-2020 25-4-1992 LT MAHESWAR BHUMIJ KAMINI BHUMIJ FTXPB2874Q 278815315025 KAMINI BHUMIJ WIFE 30-SEP-22
24 547 D-055 MARAMI MUNDA TEMPORARY 1-6-2020 17-5-1991 BHUBAN KARMAKAR PRAKASH MUNDA 7635805038 EYGPM0039B 734263258497 ANIMA MUNDA DAUGHTER 30-SEP-22
25 546 D-055 MAHESWAR GOWALA TEMPORARY 1-6-2020 7-5-1985 KULU GOWALA KHANESWARI GOWALA UMAWATI MURARI 9678354548 AREPG3690D 820856669608 UMAWATI MURARY WIFE 30-SEP-22
26 545 D-055 SAFIRA HERENJ TEMPORARY 1-6-2020 6-1-1990 PREM HERENJ JOHAN HERENJ AWEPH9447C JOHAN HERENJ BROTHER 30-SEP-22
27 544 D-055 SUKURMANI GOUR TEMPORARY 1-6-2020 29-4-1992 BHANU BHUYA RAHUL GOUR 7636069886 DDKPG9494N 883264423492 RAHUL GOUR HUSBAND 30-SEP-22
28 543 D-055 MANJU SINGHA TEMPORARY 1-6-2020 27-5-1982 RAJEN RAY SANTOSH SINGHA NDKPS7829M SANTOSH SINGHA HUSBAND 30-SEP-22
29 542 D-055 PUJA PANIKA TEMPORARY 1-6-2020 13-5-1990 KRISHNA PANIKA 8471864879 EYYPP1663Q 965929817735 KRISHNA PANIKA HUSBAND 30-SEP-22
30 541 D-055 DEBEN TANTI TEMPORARY 1-6-2020 19-6-1988 RAJEN TANTI AKASHI TANTI BPIPT0807E 754461751296 AKASHI TANTI WIFE 30-SEP-22
31 540 D-055 BINITA MUNDA TEMPORARY 1-6-2020 20-7-1991 SUBHAM TIRKEY 8099376472 582970753478 SUBHAM TIRKI HUSBAND 30-SEP-22
32 539 D-055 CILINA PORJA TEMPORARY 1-6-2020 20-6-1992 NABIN PORJA 254237752185 NABIN PORJA HUSBAND 30-SEP-22
33 538 D-055 NIKITA BARMAN TEMPORARY 1-6-2020 15-6-1998 BHODA GOWALA BIREN BARMAN 6000837052 EOQPB5904G 518944998435 BIREN BARMAN HUSBAND 30-SEP-22
34 537 D-055 DIBANTI PANIKA TEMPORARY 1-6-2020 10-11-1993 BHAGIRATHI PANIKA SANJIB GOWALA BRNPG0384E 437414232964 SANJIB GOWALA HUSBAND 30-SEP-22
35 536 D-055 SANJIB DAS PERMANENT 1-4-2020 27-12-1988 ADHIR DAS KAUSHALYA DAS AUUPD3883A 200883223450 KAUSHALYA DAS WIFE 30-SEP-22
36 535 D-055 MAHESHWAR BASUMATARY PERMANENT 1-4-2020 29-12-1979 BHANGARAM BASUMATARY SUMITRA BASUMATARY DTXPB3684J SUMITRA BASUMATARY WIFE 30-SEP-22
37 533 D-055 NEHA TANTI TEMPORARY 1-4-2019 5-12-1993 RESO MUNDA DIPAK TANTI 387197783188 DIPAK TANTI HUSBAND 30-SEP-22
38 10467 S-171 SIMA KARMAKAR PERMANENT 17-10-2005 5-5-1979 DEHESHAR MIRDHA TELESWANI MIRDHA RAJON KARMAKAR ROBI KARMAKAR Son 30-SEP-22
39 532 D-055 RAJKUMAR RAY PERMANENT 1-4-2019 5-8-1990 LT RAJENDRA RAY MUNI RAY TULSI RAY 7637822310 CMZPR1169Q 339494926703 TULSI TOSSA RAY WIFE 30-SEP-22
40 531 D-055 SANDHYA DEBNATH TEMPORARY 25-6-2018 1-10-1978 MAKHAN DEBNATH HIRENDRA DEBNATH EJAPD62667F HIRENDRA DEBNATH HUSBAND 30-SEP-22
41 11311 S-171 SIRAJ ALI PERMANENT 10-5-2004 1-1-1980 LT. GULAP ALI JOMILA BEGUM AMINA BEGUM WIFE 30-SEP-22
42 10287 S-171 SUMIT LOHAR PERMANENT 10-5-1999 12-12-1977 LT. JHATHROO LOHAR LT. SUROMONI LOHAR BENORASHI LOHAR WIFE 30-SEP-22
43 530 D-055 DAKHESWARI KACHARI TEMPORARY 25-6-2018 19-8-1975 BAKULA KACHARI HUFPK6505L 725271170778 BINOD KACHARI Son 30-SEP-22
44 529 D-055 BISHWADEW DAS TEMPORARY 25-6-2018 19-8-1975 ATUL DAS FKWPD2477K 30-SEP-22
45 528 D-055 NAMITA GOSWAMI TEMPORARY 25-6-2018 22-3-1967 KANAI GOSWAMI CAAPG8793G KANAI GOSWAMI HUSBAND 30-SEP-22
46 527 D-055 KATALI DEBNATH TEMPORARY 25-6-2018 1-1-1988 LT HARENDRA DEBNATH JYOTSHNA DEBNATH PRADIP DEBNATH 8011015861 EBGPD6037M 844742995580 PRADIP DEBNATH HUSBAND 30-SEP-22
47 526 D-055 NILIMA DEKA TEMPORARY 25-6-2018 2-1-1993 EJNPP8049E KESHAB DEKA Son 30-SEP-22
48 525 D-055 RATNESWARI RABHA TEMPORARY 25-6-2018 1-10-1969 GOSOM BARO BANA RABHA DRPPR7844G 409106212445 ATUL RABHA Son 30-SEP-22
49 524 D-055 SHEFALI DEBNATH TEMPORARY 25-6-2018 4-5-1980 JASU RAJBONSHI RATAN DEBNATH EWAPD8199H RITA DEBNATH DAUGHTER 30-SEP-22
50 523 D-055 BINOY DAS TEMPORARY 25-6-2018 5-5-1990 SACHINDRA DAS ANUMATI DAS DRUPD7943F 30-SEP-22
51 522 D-055 MITALI SINGHA TEMPORARY 25-6-2018 19-2-1986 SUKUMAR SINGHA KZOPS7147K 269134700288 SUKUMAR SINGHA HUSBAND 30-SEP-22
52 521 D-055 SUBHAM TIRKI PERMANENT 2-4-2018 1-2-1996 MANINDRA TIRKI BINITA MUNDA 6003583504 BRQPT9108L 708275842571 BINITA MUNDA WIFE 30-SEP-22
53 520 D-055 NAREN MURARI PERMANENT 2-4-2018 30-4-1993 NRIPEN MURARI RAHILA MURARI DEEPSHIKHA MURARY FGXPM8556B DEEPSHIKHA MURARY WIFE 30-SEP-22
54 519 D-055 RAJANTI DAS TEMPORARY 4-6-2017 12-11-1979 AKHIL DAS SARASWATI DAS MANIK DAS DDLPD2049K DHANANJAY DAS Son 30-SEP-22
55 518 D-055 DIPALI BHUMIJ TEMPORARY 4-6-2017 7-8-1983 MAHESWAR BHUMIJ FULCHAND BHUMIJ 6900813692 DZHPB1182F 761807201623 FULCHAND BHUMIJ HUSBAND 30-SEP-22
56 517 D-055 ALBINA MUNDA TEMPORARY 4-6-2017 4-6-1987 BIRCHA KARKATA MATIYACH MUNDA MATIYACH MUNDA HUSBAND 30-SEP-22
57 516 D-055 NEBEL MUNDA TEMPORARY 4-6-2017 1-9-1993 LT SILBANUS KARKATA BIREN MUNDA DTDPM1629A 859266346062 BIREN MUNDA HUSBAND 30-SEP-22
58 515 D-055 JONALI PANIKA PERMANENT 4-6-2017 10-1-1994 ETOWA KUJUR TALUK PANIKA 6000392834 CKWPP4208B 331676518897 TALUK PANIKA HUSBAND 30-SEP-22
59 514 D-055 JAYANTI PANIKA TEMPORARY 4-6-2017 4-6-1994 AGNOO PANIKA BILASH PANIKA 7002953092 584439086812 BILASH PANIKA HUSBAND 30-SEP-22
60 513 D-055 ANITA TIRAKER PERMANENT 4-6-2017 6-4-1992 LT INDAL GOUR RANTIT TIRKEY 8135841559 663332073080 RANJIT TIRKEY HUSBAND 30-SEP-22
61 512 D-055 NAJIR DEKA TEMPORARY 4-6-2017 4-6-1987 BALIRAM DEKA SABITRI BALA DEKA FKWPD2394P SABITRI BALA DEKA WIFE 30-SEP-22
62 511 D-055 KANIKA GOWALA PERMANENT 4-6-2017 1-9-1995 JITBAHAN GOWALA 9593834571 CSKPG4860J 716313922617 SANJAY GOWALA BROTHER 30-SEP-22
63 510 D-055 SANJOY GOWALA PERMANENT 4-6-2017 12-3-1990 JITBAHAN GOWALA RUPALI GOWALA 7099224802 CSUPG3849R 518597456952 RUPALI GOWALA WIFE 30-SEP-22
64 509 D-055 BISHWANATH KISHAN TEMPORARY 4-6-2017 4-6-1979 LT SOMRA KISHAN LT SUKNI KISHAN JAYMATI KISHAN 432865318661 JAYMATI KISHAN WIFE 30-SEP-22
65 508 D-055 PRATIMA BARMAN TEMPORARY 4-6-2017 4-6-1987 LT BASANTA BARMAN LT KUNJALATA BARMAN AMAR BARMAN 8011901740 ERBPB8647E 749137383679 RITARANI BARMAN DAUGHTER 30-SEP-22
66 507 D-055 RUKMINI GOUR PERMANENT 4-6-2017 4-6-1992 NRIPEN MURARY BISHNU GAUR DFGPG9166B BISHNU GOUR HUSBAND 30-SEP-22
67 506 D-055 JASPINA HERENJ TEMPORARY 4-6-2017 3-2-1997 JOHAN HERENJ 8471907840 AWEPH9454K 314007297589 JOHAN HERENJ HUSBAND 30-SEP-22
68 505 D-055 DILAKUMARI MUNDA PERMANENT 4-6-2017 13-7-1980 RESU MUNDA 7093739737 FETPM8305C 577292441108 RESU MUNDA HUSBAND 30-SEP-22
69 504 D-055 CHANEKI BARO TEMPORARY 4-6-2017 4-7-1980 SOBHA KACHARI DILIP BARO 6901689250 EBAPB3075B 503856043602 DILIP BARO HUSBAND 30-SEP-22
70 503 D-055 RIMA BARAIK PERMANENT 1-4-2017 1-4-1995 JAYANTA MUNDA KRISHNA BARAIK 8099376309 498641552883 LAKHIMI BARAIK DAUGHTER 30-SEP-22
71 10117 S-171 PRAHLAD SONAR PERMANENT 7-2-2001 1-1-1976 LALBABU SONAR CHILRALEKHA SONAR ANITA SONAR WIFE 30-SEP-22
72 502 D-055 DIPAK TANTI TEMPORARY 23-5-2016 8-5-1994 RAJEN TANTI NEHA TANTI BPXPT5294L 586759597337 NEHA TANTI WIFE 30-SEP-22
73 501 D-055 SANJIB GOWALA TEMPORARY 23-5-2016 8-8-1994 LT SONARAM GOWALA CHAMPA GOWALA DIBANTI PANIKA GOWALA 8134046688 CITPG9308Q 464031958429 DIBANTI PANIKA GOWALA WIFE 30-SEP-22
74 500 D-055 BIKASHI MUNDA TEMPORARY 23-5-2016 23-5-1994 NARAYAN PORJA BINOY MUNDA 7099224792 FETPM8704M 296331474020 BINOY MUNDA HUSBAND 30-SEP-22
75 499 D-055 KRISHNA PANIKA PERMANENT 23-5-2016 26-8-1992 AGNOO PANIKA RADHIKA PANIKA PUTA PANIKA 8471864879 FNIPP6875E 585987418359 PUJA PANIKA WIFE 30-SEP-22
76 498 D-055 KRISHNA PANIKA PERMANENT 23-5-2016 25-11-1989 BHAGIRATHI PANIKA PARI PANIKA 6901061241 BEFPP5376C 512149637019 PARUL PANIKA WIFE 30-SEP-22
77 497 D-055 BILASH PANIKA PERMANENT 23-5-2016 23-5-1980 6901689608 GORPP204C JAYANTI PANIKA HUSBAND 30-SEP-22
78 496 D-055 RATAN DEBNATH TEMPORARY 23-5-2016 23-9-1994 FAKU DEBNATH CJQPD7895B 30-SEP-22
79 495 D-055 NABINA BHUMIJ TEMPORARY 23-5-2016 23-5-1986 BABURAM BHUMIJ 6900813692 EHJPB2274K 698514382734 BABURAM BHUMIJ HUSBAND 30-SEP-22
80 494 D-055 PURNIMA SING TEMPORARY 23-5-2016 5-7-1980 LT JAYCHARAN BAROI LT RAJUBALA BAROI LT KANTI SINGH 382660785834 SIBCHARAN SINGH Son 30-SEP-22
81 493 D-055 SUBDHRA BARMAN TEMPORARY 23-5-2016 1-10-1980 LT JAYCHARAN BAROI LT RASMANI BARMAN LT KANTI SINGH 7896398117 DRPPB5994H 740601885524 BICHITRA BARMAN Son 30-SEP-22
82 492 D-055 LAKHI MUNDA PERMANENT 23-5-2016 4-5-1985 LT JOSCPH MUNDA 8812841478 EAHPM3815A 939440083316 AKHARANI MUNDA DAUGHTER 30-SEP-22
83 491 D-055 KUNTAL ADHIKARY TEMPORARY 23-5-2016 23-5-1984 RAMKRISHNA ADHIKARY ANITA ADHIKARY ANITA ADHIKARY WIFE 30-SEP-22
84 490 D-055 BISHNU GAR PERMANENT 11-4-2016 11-4-1990 RAMSING GAR SARASWATI GAR LAKHIMONI GAR CVVPG3503N 967597772610 LAKHIMONI GAR WIFE 30-SEP-22
85 489 D-055 ANJANA MUNDA PERMANENT 5-4-2016 6-5-1992 BUDHO MUNDA BIJOY MUNDA 9678163487 DXLPM4852E 765777542588 BIJOY MUNDA HUSBAND 30-SEP-22
86 488 D-055 REKHA GOUR PERMANENT 13-7-2015 13-7-1990 PADA GOUR PADA GOUR HUSBAND 30-SEP-22
87 487 D-055 DAMAYANTI DEKA TEMPORARY 13-7-2015 13-7-1985 BOGA BARO SATYA DEKA 9954186289 FBGPD0728A 697485903144 GANAPATI DEKA Son 30-SEP-22
88 486 D-055 MINU DEKA TEMPORARY 13-7-2015 13-7-1985 SATYA CHARAN RABHA PRAMILA DEKA DAUGHTER 30-SEP-22
89 485 D-055 FULESWARI DEKA TEMPORARY 13-7-2015 13-7-1980 DHANESWAR DEKA 8472021227 FFLPD7494L 894817961603 SUNITA DEKA DAUGHTER 30-SEP-22
90 484 D-055 BISHAKHA GOUR TEMPORARY 13-7-2015 13-7-1985 MUCHRAI MUNDA REKHA MUNDA DURGA GOUR DURGA GOUR HUSBAND 30-SEP-22
91 11012 S-171 POSURAM LOHAR PERMANENT 30-9-2022 26-11-1987 RUBUL LOHAR JETNI LOHAR RODNEKA LOHAR WIFE 30-SEP-22
92 482 D-055 JOHAN HERENJ PERMANENT 13-7-2015 13-1-1992 PREM HERENJ MAMONI HERENJ SUNITA HERENJ 8471907840 316608775449 SUNITA HERENJ WIFE 30-SEP-22
93 481 D-055 MALASINA SAWRA SABAR PERMANENT 13-7-2015 26-10-1986 ANIL SAWRA DURJANI SAWRA JAYANTA SABAR GOAPS9932D 750327259390 JAYANTA SABAR HUSBAND 30-SEP-22
94 480 D-055 PUTLI GOUR TEMPORARY 13-7-2015 13-7-1993 BISHNU GOUR BISHNU GOUR HUSBAND 30-SEP-22
95 478 D-055 FULCHAND BHUMIJ TEMPORARY 13-7-2015 13-7-1985 LT SAMBHU BHUMIJ DIPALI BHUMIJ 6003808861 EHJPB1440K 631109549174 DIPALI BHUMIJ WIFE 30-SEP-22
96 477 D-055 BIPUL DEBNATH PERMANENT 13-7-2015 26-8-1992 FALU DEBNATH SUNTANI DEBNATH 9957667063 AZIPD7225K 420034519216 SUNJANI DEBNATH WIFE 30-SEP-22
97 476 D-055 JUNU GOUR TEMPORARY 13-7-2015 13-7-1993 30-SEP-22
98 475 D-055 SHYAN DEBNATH TEMPORARY 6-7-2015 12-12-1988 LT NONIGOPAL DEBNATH PUJA DEBNATH BXYPD4376G PUJA DEBNATH WIFE 30-SEP-22
99 474 D-055 RANJIT BARMAN TEMPORARY 6-7-2015 6-7-1985 RABANDRA BARMAN PANCHAMI BARMAN BXYPD4376G PANCHAMI BARMAN WIFE 30-SEP-22
100 473 D-055 LEPPA MUNDA PERMANENT 1-4-2015 1-4-1984 BUDHO MUNDA PUSPA MUNDA 7637865802 EVYPM1009N 793407103807 PUSPA MUNDA WIFE 30-SEP-22
101 472 D-055 DHANIRAM BARAIK PERMANENT 1-4-2015 27-12-1986 LT SAMRA BARAIK SANMATI BARAIK FAGUNI BARAIK BWOPB4851R 751396766766 FAGUNI BARAIK WIFE 30-SEP-22
102 471 D-055 TALUK PANIKA PERMANENT 24-12-2014 10-4-1994 ARABINDA PANIKA JONALI PANIKA 6000392834 CIM992819J 507145455866 JONALI PANIKA WIFE 30-SEP-22
103 470 D-055 PRANAB DEBNATH PERMANENT 1-8-2014 17-12-1991 KHAGEN DEBNATH ALPANA DEBNATH 7678470194 ATSPD9760D 421343534474 ALPANA DEBNATH Mother 30-SEP-22
104 469 D-055 SUNITA GOUR PERMANENT 1-7-2014 1-1-1994 FULSAI GOUR JOHAN HERENJ 8471907840 ANZPH2092R 400875783768 JOHAN HERENT HUSBAND 30-SEP-22
105 468 D-055 BISHNU MUNDA PERMANENT 1-7-2014 1-7-1994 LT AKO MUNDA 9707245920 907337739383 DULU MUNDA WIFE 30-SEP-22
106 467 D-055 BINOY MUNDA PERMANENT 1-7-2014 12-5-1990 PAWLOSH MUNDA 7099224792 BKQPM9987B 294857819227 BIKASHI MUNDA WIFE 30-SEP-22
107 466 D-055 BABU RAM BHUMIJ PERMANENT 1-7-2014 18-9-1989 NABINA BHUMIJ 8812951361 BZSPB4546C 203540450893 NABINA BHUMIJ WIFE 30-SEP-22
108 465 D-055 ARUN GOUR PERMANENT 1-7-2014 1-7-1993 LT BABUL GOUR 8472880620 BJZPG1459G 393897890708 30-SEP-22
109 464 D-055 MINATI DAS TEMPORARY 1-4-2014 1-10-1977 LT KHITISH DAS LT JOGAMAYA DAS AMARCHAND DAS 7637822265 DFXPD6535Q 490109051899 SUNIL DAS Son 30-SEP-22
110 9908 S-171 SUJIT NAYAK PERMANENT 23-6-1999 4-5-1980 Lt.. Moniram Nayak Amila Nayak AMI NAYAK AMI NAYAK WIFE 30-SEP-22
111 463 D-055 ANITA DEBNATH TEMPORARY 1-9-2014 1-10-1980 THAKURDAS DEBNATH LT BISOKHA DEBNATH RABINDRA DEBNATH 8838636678 EFEPD8283P 968704319611 FUKAN DEBNATH Son 29-SEP-22
112 461 D-055 SHYAMAL DEBNATH PERMANENT 1-4-2014 1-4-1988 FALU DEBNATH SHIMA DEBNATH 8133920630 GIJPD6113G 402577707290 SHIMA DEBNATH WIFE 29-SEP-22
113 460 D-055 BIJAY MUNDA PERMANENT 18-6-2013 6-4-1987 BUDHO MUNDA ANJANA MUNDA 9678163487 DXIPM4853F 642628649607 ANJANA MUNDA WIFE 29-SEP-22
114 458 D-055 CHIBRIYANI KUJUR PERMANENT 18-6-2013 18-6-1986 DILIP KUJUR HLEPK9896N 438582785514 DILIP KUJUR HUSBAND 29-SEP-22
115 457 D-055 GITA TIRKEY PERMANENT 18-6-2013 3-6-1988 MUNINDRA TIRKEI LUKASH MUNDA 8796789588 BOBPT6791R 551370595144 LUKASH MUNDA HUSBAND 29-SEP-22
116 456 D-055 DIPALI BARMAN PERMANENT 18-6-2013 15-5-1979 BHUSAN PANDID NANDALAL BARMAN 9550598627 EHJPB2380A 401229289180 PRASENJIT BARMAN Son 29-SEP-22
117 455 D-055 SIMA MUNDA PERMANENT 18-6-2013 18-6-1988 BISWAJIT MUNDA BROTHER IN LAW 29-SEP-22
118 454 D-055 BINITA GAR 0 18-6-2013 27-5-1988 BUDHA GOWALA BIKASH GAR 6000837052 705496854334 BIKASH GAR HUSBAND 29-SEP-22
119 453 D-055 PINGKI BHUYAN TEMPORARY 18-6-2013 18-6-1990 MUKUL BHUYAN 619245228772 MUKUL BHUYAN HUSBAND 29-SEP-22
120 452 D-055 SANGITA MUNDA TEMPORARY 18-6-2013 7-8-1980 DILIP MUNDA 7637873794 EVYPM1010H 333724675487 DILIP MUNDA HUSBAND 29-SEP-22
121 451 D-055 RAKHAL DEBNATH PERMANENT 18-6-2013 4-9-1983 LT RUKHINI DEBNATH LT USHA DEBNATH SARASWATI DEBNATH 9957436651 FJMPO4958Q 680814224052 SARASWATI DEBNATH WIFE 29-SEP-22
122 450 D-055 SUKHDEW GOWALA PERMANENT 1-4-2013 4-2-1990 RAGHA GOWALA RIMA GOWALA BTBPG9721P 404729411989 RIMA GOWALA WIFE 29-SEP-22
123 449 D-055 BIREN MUNDA PERMANENT 4-4-2013 1-1-1988 SOMA MUNDA NEBEL MUNDA 8472881798 DTDPM1630M 333486923191 NEBEL MUNDA WIFE 29-SEP-22
124 448 D-055 PURABI MUNDA PERMANENT 1-4-2013 14-2-1985 GANESH PANIKA 8811962378 ECDPM5469N 744518639387 GANESH PANIKA HUSBAND 29-SEP-22
125 447 D-055 ANU BHUYAN PERMANENT 1-4-2013 5-3-1988 KANDRA KUJUR SURESH BHUYAN 6901061987 DZHPB1098C 430342190298 SURESH BHUYAN HUSBAND 29-SEP-22
126 446 D-055 RANJIT KALANDI PERMANENT 1-4-2013 1-4-1978 9707394848 511449148098 SITA KALANDI WIFE 29-SEP-22
127 445 D-055 SHANTA DAS PERMANENT 1-4-2012 21-10-1970 LT HEMCARANDRA DAS JOSODA DAS LALITA DAS 7086968528 DDLPD2900R 520396637127 LALITA DAS WIFE 29-SEP-22
128 443 D-055 LALITA RABHA TEMPORARY 11-7-2011 11-7-1976 SUMBEAR KACHARI MANGAL RABHA EQAPR9167P 946974254730 MANGAL RABHA HUSBAND 29-SEP-22
129 442 D-055 MANGAL RABHA TEMPORARY 11-7-2011 2-10-1974 THOTHA RABHA LALITA RABHA 7896221339 DFFPR6132P 872601309188 LALITA RABHA WIFE 29-SEP-22
130 440 D-055 ANJALI MUNDA PERMANENT 3-6-2011 1-10-1987 MAIKEL MUNDA EJWPN7500Q MIKEL MUNDA HUSBAND 29-SEP-22
131 439 D-055 BIJU GOWALA PERMANENT 3-6-2011 3-6-1981 JITBAHAN GOWALA 7099224802 227770196965 KANIKA GOWALA SISTER 28-SEP-22
132 438 D-055 KARTIK KUJUR PERMANENT 3-6-2011 1-10-1984 KANDRA KUJUR BIRAKHI KUJUR PRANITA KUJUR 7896792693 GLMPK2837J 85721077025 PRANITA KUJUR WIFE 28-SEP-22
133 437 D-055 CHANITA GAR PERMANENT 3-6-2011 9-6-1983 MANTOO MUNDA NAREN GAR CVVPG3677B 323138280446 NAREN GAR HUSBAND 28-SEP-22
134 436 D-055 KUNTALA PANIKA PERMANENT 1-4-2011 15-9-1980 BANAN PANIKA LT AGHUNI PANIKA LT GANESH PANIKA EYYPP1701H LASHMI PANIKA DAUGHTER 28-SEP-22
135 435 D-055 CHAMPA GOWALA PERMANENT 1-4-2011 1-1-1986 SONARAM GOWALA 8134046688 CVVPG3506K 885936660738 SANJIB GOWALA Son 28-SEP-22
136 434 D-055 KUNTI MUNDA PERMANENT 1-4-2011 6-9-1987 MAHESWAR BHUMIJ RAKESH MUNDA 9394073089 DXIPM4864A 272720326567 JAYA MUNDA DAUGHTER 28-SEP-22
137 433 D-055 RUPALI GOWALA TEMPORARY 1-4-2011 1-4-1985 SOMA MUNDA SANJAY GOWALA 7637822316 CVVPG3504M 474360193542 SANJAY GOWALA HUSBAND 28-SEP-22
138 432 D-055 SITA KALANDI PERMANENT 1-4-2011 3-5-1979 MUNINDRA TIRKI RANJIT KALANDI IAAPK6326M 767534161276 RANJJIT KALANDI HUSBAND 28-SEP-22
139 430 D-055 ROHIT BARO PERMANENT 1-4-2010 1-9-1979 RUDRA BARO PADUMI BARO 9954629867 CUWPB6009A 21897075424887 PADUMI BARO WIFE 28-SEP-22
140 427 D-055 SHEWALI ARYA TEMPORARY 13-7-2008 13-7-1978 ASWANI BANIK DURGA ARYA 8822135528 DBGPA6675H 650849606659 DURGA ARYA HUSBAND 28-SEP-22
141 426 D-055 NANIBAI BARMAN TEMPORARY 13-7-2008 1-10-1972 LT GOUR BARMAN LT KASHULLYA BARMAN RABESH BARMAN DKSPB7637B 890679128722 RUPALI BARMAN DAUGHTER 28-SEP-22
142 425 D-055 FALANI DAS TEMPORARY 13-7-2008 1-1-1971 SRIKANTA DAS KISHOR DAS 8471956275 DTTPD2963N 978309140751 MANGAL MDAS Son 28-SEP-22
143 424 D-055 USHA DAS TEMPORARY 13-7-2008 13-7-1973 MAKHAN DAS RABI DAS FTBPD1864A 523949607717 RABI DAS HUSBAND 28-SEP-22
144 423 D-055 SAMALA DAS TEMPORARY 13-7-2008 1-1-1973 DIGINDRA DAS 7896922171 CGGPD8043L 802163936255 JIYANI DAS Son 28-SEP-22
145 422 D-055 BELIRANI DEBNATH TEMPORARY 13-7-2008 1-10-1968 KALCHAN DEBNATH MANORANJAN DEBNATH EETPD3090C MANORANJAN DEBNATH HUSBAND 28-SEP-22
146 419 D-055 SIBANI DEBNATH PERMANENT 1-6-2007 1-10-1977 9365305115 DDZPD2965Q 201182966914 GAGAN DEBNATH Son 28-SEP-22
147 416 D-055 BIKASH GAR PERMANENT 1-6-2007 4-4-1977 LT RAMSING GAR BINITA GAR 8099376712 CVLPG2412C 567120215667 BINITA GAR WIFE 28-SEP-22
148 415 D-055 GANGA GOWALA PERMANENT 1-6-2007 1-6-1982 RAGHA GOWALA LALU GOWALA 9365791585 818225183301 LALU GOWALA HUSBAND 28-SEP-22
149 412 D-055 CHANARAM SHIL PERMANENT 1-6-2007 1-10-1965 MOHAN SHIL REKHARANI SHIL 6900353999 LYNPS8225H 334764543671 REKHA RANI SHIL WIFE 28-SEP-22
150 411 D-055 ANIRUDDHA SARMAH PERMANENT 1-4-2006 29-4-1968 JOGENDRA NATH SARMAH ARUNDHATI DEVI BINITA BARUA DEVI 7896085093 EFEPS0083E 731699505038 BINITA BARUA DEVI WIFE 28-SEP-22
151 407 D-055 FADALA BARO PERMANENT 17-7-2005 1-10-1969 GOBINDA BARO ANJALI BARO 8753993751 447720280640 ANJALI BARO WIFE 28-SEP-22
152 406 D-055 AJIT DAS PERMANENT 3-5-2004 3-3-1978 ADHIR DAS ARATI DAS MAYA DAS 7896108804 BFNPD9486A 434838125779 MAYA RANI DAS WIFE 28-SEP-22
153 405 D-055 KANCHAN DEBNATH TEMPORARY 1-9-2003 1-10-1973 BALARAM DEBNATH RAJU DEBNATH 6003597309 EPWPD5542B 559502256674 RAJU DEBNATH HUSBAND 28-SEP-22
154 403 D-055 RUPALI KUJUR PERMANENT 14-9-2003 15-9-1983 LT SAMRA MUNDA LT ETOWA MUNDA IAAPK5777G 719535920890 KARAN KUJUR Son 28-SEP-22
155 400 D-055 PETALA MUNDA PERMANENT 1-9-2003 6-11-1976 SANIKA MUNDA SUSHILA MUNDA EVYPM1021A 356442182984 SUSHILA MUNDA WIFE 28-SEP-22
156 399 D-055 RUKMINI MUNDA PERMANENT 1-9-2003 3-7-1976 BUDHU MUNDA MENOKA MUNDA SHILASH MUNDA 7002425572 EVYPM1022D 353180461537 SHILASH MUNDA HUSBAND 28-SEP-22
157 398 D-055 MUKUL BHUYAN PERMANENT 1-9-2003 1-9-1973 SALKURAM BHUYAN PINKI BHUYAN 374892649245 PINKI BHUYAN WIFE 28-SEP-22
158 397 D-055 MATIYACH MUNDA PERMANENT 1-9-2003 1-9-1968 APELSWAMI MUNDA ALBINA MUNDA 777957578836 ALBINA MUNDA WIFE 28-SEP-22
159 393 D-055 DILIP MUNDA PERMANENT 26-8-2002 6-3-1972 BUDHO MUNDA SANGITA MUNDA 9365011671 EVYPM0771F 819755478771 SANGITA MUNDA WIFE 28-SEP-22
160 386 D-055 SHAMA MUNDA TEMPORARY 20-7-2001 20-7-1976 RAMSING GOUR RASKA MUNDA RASKA MUNDA HUSBAND 28-SEP-22
161 385 D-055 SILASH MUNDA PERMANENT 16-4-2001 9-4-1977 MASI MUNDA KUKMINI MUNDA 9707245843 EVYPM1019Q 360302533992 RUKMINI MUNDA WIFE 28-SEP-22
162 384 D-055 LALU GOWALA PERMANENT 10-4-2001 1-10-1978 DHARANI GOWALA GANGA GOWALA 6900442012 CGFPG1354J 722413270618 GANGA GOWALA WIFE 28-SEP-22
163 383 D-055 KALPANA BHUYAN PERMANENT 16-4-2001 6-4-1975 KHAGEN BAWRI SUKROO BHUYAN 6003808861 EHJPB1443L 529502699301 SUKROO BHUYAN HUSBAND 28-SEP-22
164 377 D-055 LUKASH MUNDA PERMANENT 8-8-1999 1-1-1972 GITA TIRKEY 7896789588 DUWPM2306C 390322676058 GITA TIRKEY WIFE 28-SEP-22
165 374 D-055 MIKEL MUNDA PERMANENT 1-3-1999 1-10-1975 SANIKA MUNDA ANJALI MUNDA 9678354548 EJWPM7501R ANJALI MUNDA WIFE 28-SEP-22
166 372 D-055 SHEWALI MUNDA PERMANENT 1-3-1999 1-3-1979 RAJAN TANTI 8472051820 HBPPM5219A 995650327359 MARKUSH MUNDA HUSBAND 28-SEP-22
167 369 D-055 BIRASHMUNI TIRKEY PERMANENT 4-1-1999 2-2-1975 RAIMON PORJA NIRMAL TIRKEY 8812949729 BGEPT9169G 201027822671 SIBIT TIRKEY Son 28-SEP-22
168 367 D-055 SHANTI PANIKA PERMANENT 2-5-1998 1-10-1968 JAGADISH PANIKA BHAGIRATHI PANIKA 6001031513 EVMPP0153A 296072308966 BHAGIRATHI PANIKA HUSBAND 28-SEP-22
169 365 D-055 NAREN GAR PERMANENT 2-5-1998 2-5-1974 RAMGHAN GAR CHANITA GAR CVVPG3505L CHANITA GAR WIFE 28-SEP-22
170 364 D-055 GUNA RAM BRAMHA PERMANENT 1-4-1997 1-4-1968 PURNA KANTA BRAHMA RAHINI BALA BRAHMA RAM PRABHA BRAHMA 9577143557 BICPB5571L 496232480627 RENU PRAVA BRAHMA WIFE 28-SEP-22
171 361 D-055 SUKROO BHUYAN PERMANENT 1-4-1997 5-7-1969 LT MADAN BHUYAN 9707394848 EHJPB2277L KALPANA BHUYAN WIFE 28-SEP-22
172 360 D-055 DILIP BARO PERMANENT 1-4-1997 1-4-1963 TILAK BORO LAHESWARI BORO NAMITA BORO 6901689250 FISPB3753E 863643179133 NAMITA BARO WIFE 28-SEP-22
173 359 D-055 KHAGEN BASUMATARY PERMANENT 1-4-1997 1-3-1965 LT NAGARAM BASUMATARY LT LAGONI BASUMATARY RINA BASUMATARY 9859565556 AVGPB4073R 461383157034 RINA BASUMATARY WIFE 28-SEP-22
174 355 D-055 MITHINGA BASUMATARY PERMANENT 1-11-1995 13-8-1970 LT AMAL BASUMATARY FULESWARI BASUMATARY 9707523287 CXRPB9309M 294268753371 FULESWARI BASUMATARY WIFE 28-SEP-22
175 351 D-055 SONIKA MUNDA PERMANENT 7-8-1994 18-1-1968 LT ANANDA BARMAN RAMESH MUNDA 9515483319 DYIPM9669C 310980507415 RAMESH MUNDA HUSBAND 28-SEP-22
176 346 D-055 RAMESH MUNDA PERMANENT 13-9-1993 12-3-1963 MASI PROKASH MUNDA SONEKA MUNDA 9515483319 DYIPM9628F 859512711806 SONEKA MUNDA WIFE 28-SEP-22
177 342 D-055 RENU MUNDA PERMANENT 13-9-1993 13-9-1971 JAYANTA MUNDA 6901069194 FETPM8304D 840584296417 JAYANTA MUNDA HUSBAND 28-SEP-22
178 341 D-055 CHAUHAGI BARMAN PERMANENT 13-9-1993 1-10-1969 BIJU BARMAN 6000837052 EKRPB7366F 319671447817 BIJU BARMAN HUSBAND 28-SEP-22
179 340 D-055 MANAMAYA DAMI PERMANENT 13-9-1993 17-10-1968 BHENKU DAMI 6900680175 ENWPD2690J 227730904765 BHENKU DAMI HUSBAND 28-SEP-22
180 334 D-055 NABIN BASUMATARY PERMANENT 15-6-1993 25-5-1963 BUDHIRAM BASUMATARY LT SOMBARI BASUMATARY MAINO BASUMATARY 8812815627 BRGPB5276B 639500500766 MAINO BASUMATARY WIFE 28-SEP-22
181 332 D-055 NARAYAN PRAJA PERMANENT 15-6-1993 9-3-1967 RAIMAN PRAJA BUDHNI PRAJA DIPALI PRAJA 7099224520 ERMPP0024E 380640149479 DIPALI PORJA WIFE 28-SEP-22
182 330 D-055 DIPALI PORJA PERMANENT 15-6-1993 15-6-1970 LT CHANDRA BAHADUR RAM BOTI BAHADUR NARAYAN PORJA 6000896460 FIDPP9903F 622351068062 NARAYAN PORJA HUSBAND 28-SEP-22
183 329 D-055 FULAMANI KUJUR PERMANENT 15-6-1993 6-7-1973 8753996218 IAAPK5786F 250742501562 DILIP KUJUR BROTHER 28-SEP-22
184 328 D-055 ASHAMANI PORJA PERMANENT 15-6-1993 15-6-1967 8472045498 EVZPP4256B 529473848973 SAMBHU PORJA HUSBAND 28-SEP-22
185 300 D-055 USHA SINGHA PERMANENT 13-8-1990 10-8-1964 LT KIRAN SINGHA JHWPS4509G 992207390672 NIRANJAN SINGHA Son 28-SEP-22
186 290 D-055 BIJU BARMAN PERMANENT 5-3-1990 4-10-1970 CHAUHAGI BARMAN 6000837052 CLSPB9808C 824150816081 CHAUHAGI BARMAN WIFE 28-SEP-22
187 259 D-055 KHAGEN DEBNATH PERMANENT 1-4-1987 10-10-1966 LT LALMOHAN DEBNATH ALPANA DEBNATH 9678079052 DYLPD3596N 301648648044 ALPANA DEBNATH WIFE 28-SEP-22
188 T-1364 S-106 ANJU KAHAR TEMPORARY 30-4-2018 26-5-1996 RAGHU RAJPUT LAKHO RAJPUT HUNTU KAHAR 9707073970 765989900793 SAMIR KAHAR Son 27-SEP-22
189 1176 S-106 KALPANA TANGLA PERMANENT 12-1-2015 22-11-1992 SRI ANIL TANTI SMT. JIRA TANTI RADHEYSHYAM TANGLA 6900815826 BIBEK TONGLA Son 27-SEP-22
190 580 S-106 BISU TANTI PERMANENT 17-5-1999 14-11-1977 LT MADON TANTI LT KUAILI TANTI JHILLY TANTI JHILLY TANTI WIFE 27-SEP-22
191 1192 S-106 KAMAL BOWRI PERMANENT 9-3-2015 18-3-1995 LT BINUD BAWRI SOPNA BAWRI JUNALI BAWRI 8472841019 JUNALI BAWRI WIFE 27-SEP-22
192 T-1245 S-106 SUMITRA BAURI TEMPORARY 1-6-2015 2-6-1990 LT BISHNATH BAURI LT URMILA BAURI TARUN BAURI 9864598158 PUNAM BAURI DAUGHTER 27-SEP-22
193 T-1239 S-106 PARBOTI TOSSA TEMPORARY 1-6-2015 2-6-1990 ROBINDRA TONGLA LT SARASWATI TONGLA DEBAN TOSSA 6002730278 DEBAN TOSSA HUSBAND 27-SEP-22
194 9802 D-079 JUNASH BHADRA TEMPORARY 1-6-2014 1-1-1985 BUDHUBA BHADRA 7086384847 848695837538 BUDHUBA BHADRA Father 27-SEP-22
195 9866 D-079 ANJOLI TOPNO PERMANENT 8-2-2015 1-1-1996 INDU MUNDA BIKA TOPNO 8099026137 BQQPT1656N 773325136431 BIKA TOPNO HUSBAND 27-SEP-22
196 7050 D-079 SUKUARO TANTI TEMPORARY 7-6-2011 1-2-1995 ETOWA MUNDA RUDRO TANTI 9791578236 BNXPT1742B 446680421303 RUDRO TANTI HUSBAND 27-SEP-22
197 6338 D-079 BIKA TOPNO 0 18-5-2009 21-10-1990 JAKRIYASH TOPNO ANJOLI TOPNO 8838641322 BPPPT6658L 205465796555 ANJOLI TOPNO WIFE 27-SEP-22
198 6729 D-079 RITUMONI TANTI TEMPORARY 18-10-2010 10-3-1992 BIRBAL KARMAKAR JITEN TANTI 8638782212 CCIPT8836R 749680090671 JITEN TANTI HUSBAND 27-SEP-22
199 7071 D-079 MERY MUNDA PERMANENT 16-7-2011 1-1-1993 RAMAI MUNDA SUKRAM MUNDA 7099297190 727407572450 SUKRAM MUNDA HUSBAND 27-SEP-22
200 4243 D-079 KARTTINA MUNDA PERMANENT 15-4-1993 15-4-1976 JOHAN MUNDA 9127338149 GJDPM2796F 277815063138 JOHAN MUNDA Father 27-SEP-22
201 3763 D-079 BIRANGA GOWALA PERMANENT 8-5-2000 11-2-1970 MANGRA MUNDA 8453319844 CJGPG2698D 745513522359 KISHAN GOWALA BROTHER 27-SEP-22
202 6280 D-079 PHILISITA LOGUN TEMPORARY 4-9-2009 5-2-1993 JACKRIASH TOPNO KHERIA LOGUN 7575996308 BELPL6731D 646094377815 KHERIA LOGUN HUSBAND 27-SEP-22
203 6272 D-079 KHERIA LOGUN PERMANENT 2-2-2009 30-4-1987 LANGO LOGUN SOMBARI LOGUN PHILISITA LOGUN 7575996308 ATXPL1215C 224940199500 PHILISITA LOGUN WIFE 27-SEP-22
204 6383 D-079 SOMA SARUKAT PURTY PERMANENT 1-6-2009 20-3-1989 SANIKA SARUKAT PURTY DASMI SARUKAT PURTY 9387080498 JRXPS2544Q 980293764200 DASMI SARUKAT PURTY WIFE 27-SEP-22
205 5388 D-079 BAHADUR TANTI PERMANENT 9-4-2017 21-9-1975 LAKHIRAM TANTI RUKNI TANTI 6001142603 BPBPT6608G 634863907232 RUKNI TANTI WIFE 27-SEP-22
206 4144 D-079 GANESH TANTI 0 6-9-1999 16-4-1974 BIDYADHAR TANTI 9387621965 890909256610 27-SEP-22
207 7185 D-079 SUNITA KOYAN PERMANENT 16-4-2012 15-6-1994 DEBEN TANTI ASHOK KOYAN 6000419356 JYUPK3255A 492423962788 ASHOK KOYAN HUSBAND 27-SEP-22
208 10329 D-079 TINA TATI TEMPORARY 1-4-2016 1-1-1995 GOPAL SOREN SANKAR TATI 8472914287 BTLPT9611F 323033986800 SANKAR TATI HUSBAND 27-SEP-22
209 6118 D-079 DEBARI MAHALI PERMANENT 4-8-2008 1-10-1998 SAIDU MAHALI 9387621780